DW8545 Weather Reports


time (UTC)temp
C
wind
direction
speed
KPH
gust
KPH
rain 1hr
cm
rain 24hr
cm
rain mn
cm
humidity
%
barometer
mb
20260508152510 12 69 0.0 3.2 0.00 0.00 0.00 44 1020.2
20260508152013 12 69 0.0 3.2 0.00 0.00 0.00 46 1020.1
20260508151529 11 0 0.0 3.2 0.00 0.00 0.00 45 1020.2
20260508151013 11 0 0.0 3.2 0.00 0.00 0.00 47 1020.2
20260508150511 11 69 0.0 3.2 0.00 0.00 0.00 48 1020.2
20260508150031 10 69 1.6 3.2 0.00 0.00 0.00 49 1020.2
20260508145512 10 69 0.0 3.2 0.00 0.00 0.00 50 1020.3
20260508145012 9 69 0.0 3.2 0.00 0.00 0.00 51 1020.5
20260508144530 9 0 1.6 3.2 0.00 0.00 0.00 52 1020.4
20260508144010 8 0 0.0 3.2 0.00 0.00 0.00 54 1020.4
20260508143510 7 0 1.6 3.2 0.00 0.00 0.00 54 1020.4
20260508143032 7 0 0.0 4.8 0.00 0.00 0.00 57 1020.4
20260508142514 7 69 0.0 4.8 0.00 0.00 0.00 57 1020.5
20260508142010 6 69 1.6 4.8 0.00 0.00 0.00 58 1020.3
20260508141533 6 69 0.0 3.2 0.00 0.00 0.00 60 1020.3
20260508141013 5 0 0.0 3.2 0.00 0.00 0.00 61 1020.2
20260508140513 5 69 0.0 3.2 0.00 0.00 0.00 62 1020.3
20260508140032 5 69 0.0 3.2 0.00 0.00 0.00 63 1020.3
20260508135514 4 0 0.0 3.2 0.00 0.00 0.00 64 1020.4
20260508135012 3 69 0.0 3.2 0.00 0.00 0.00 66 1020.4
20260508134531 3 0 0.0 3.2 0.00 0.00 0.00 66 1020.4
20260508134012 3 69 0.0 3.2 0.00 0.00 0.00 67 1020.5
20260508133513 2 0 0.0 3.2 0.00 0.00 0.00 67 1020.4
20260508133030 2 0 0.0 3.2 0.00 0.00 0.00 67 1020.3
20260508132512 2 0 0.0 3.2 0.00 0.00 0.00 68 1020.2
20260508132010 2 69 0.0 3.2 0.00 0.00 0.00 68 1020.2
20260508131532 2 0 0.0 3.2 0.00 0.00 0.00 68 1020.1
20260508131013 1 0 0.0 3.2 0.00 0.00 0.00 69 1020.1
20260508130516 1 0 0.0 3.2 0.00 0.00 0.00 69 1020.0
20260508130031 1 0 0.0 3.2 0.00 0.00 0.00 68 1020.0
20260508125514 1 0 0.0 3.2 0.00 0.00 0.00 68 1020.0
20260508125011 1 69 0.0 3.2 0.00 0.00 0.00 68 1019.9
20260508124530 1 0 0.0 0.0 0.00 0.00 0.00 68 1020.0
20260508124012 1 0 0.0 0.0 0.00 0.00 0.00 68 1020.0
20260508123513 1 0 0.0 0.0 0.00 0.00 0.00 68 1019.9
20260508123030 1 0 0.0 0.0 0.00 0.00 0.00 68 1020.0
20260508122510 1 0 0.0 0.0 0.00 0.00 0.00 67 1019.9
20260508122013 1 0 0.0 0.0 0.00 0.00 0.00 67 1019.8
20260508121530 1 0 0.0 0.0 0.00 0.00 0.00 67 1019.8
20260508121013 1 0 0.0 0.0 0.00 0.00 0.00 67 1019.8
20260508120513 1 0 0.0 0.0 0.00 0.00 0.00 67 1019.8
20260508120038 1 0 0.0 0.0 0.00 0.00 0.00 67 1019.8
20260508115514 1 0 0.0 0.0 0.00 0.00 0.00 66 1019.8
20260508115014 1 0 0.0 0.0 0.00 0.00 0.00 66 1019.8
20260508114531 1 0 0.0 0.0 0.00 0.00 0.00 66 1019.8
20260508114010 1 0 0.0 0.0 0.00 0.00 0.00 67 1019.8
20260508113514 1 0 0.0 0.0 0.00 0.00 0.00 66 1019.8
20260508113035 1 0 0.0 0.0 0.00 0.00 0.00 66 1019.8
20260508112516 1 0 0.0 0.0 0.00 0.00 0.00 65 1019.8
20260508112011 1 0 0.0 0.0 0.00 0.00 0.00 65 1019.8
20260508111533 1 0 0.0 0.0 0.00 0.00 0.00 65 1019.7
20260508111014 1 0 0.0 0.0 0.00 0.00 0.00 64 1019.8
20260508110513 1 0 0.0 0.0 0.00 0.00 0.00 64 1019.9
20260508110030 1 0 0.0 0.0 0.00 0.00 0.00 64 1019.9
20260508105513 1 0 0.0 0.0 0.00 0.00 0.00 64 1019.8
20260508105015 2 0 0.0 0.0 0.00 0.00 0.00 64 1019.9
20260508104531 2 0 0.0 0.0 0.00 0.00 0.00 63 1020.0
20260508104013 2 0 0.0 0.0 0.00 0.00 0.00 63 1019.9
20260508103514 2 0 0.0 0.0 0.00 0.00 0.00 63 1019.8
20260508103035 2 0 0.0 3.2 0.00 0.00 0.00 63 1019.8
20260508102511 2 0 0.0 3.2 0.00 0.00 0.00 63 1019.9
20260508102013 2 69 0.0 3.2 0.00 0.00 0.00 63 1019.8
20260508101528 2 0 0.0 0.0 0.00 0.00 0.00 63 1019.7
20260508101011 2 0 0.0 0.0 0.00 0.00 0.00 62 1019.8
20260508100510 2 0 0.0 0.0 0.00 0.00 0.00 62 1019.8
20260508100032 2 0 0.0 3.2 0.00 0.00 0.00 62 1019.7
20260508095510 2 0 0.0 3.2 0.00 0.00 0.00 61 1019.7
20260508095015 2 69 0.0 3.2 0.00 0.00 0.00 61 1019.6
20260508094531 2 0 0.0 1.6 0.00 0.00 0.00 62 1019.7
20260508094012 2 0 0.0 3.2 0.00 0.00 0.00 61 1019.7
20260508093512 2 0 0.0 3.2 0.00 0.00 0.00 61 1019.7
20260508093031 2 0 0.0 3.2 0.00 0.00 0.00 61 1019.6
20260508092515 2 0 0.0 3.2 0.00 0.00 0.00 61 1019.6
20260508092010 2 69 0.0 3.2 0.00 0.00 0.00 61 1019.6
20260508091536 2 0 0.0 3.2 0.00 0.00 0.00 61 1019.7
20260508091011 2 0 0.0 0.0 0.00 0.00 0.00 61 1019.8
20260508090514 2 0 0.0 0.0 0.00 0.00 0.00 61 1019.8
20260508090032 2 0 0.0 0.0 0.00 0.00 0.00 62 1019.8
20260508085510 2 0 0.0 0.0 0.00 0.00 0.00 61 1019.9
20260508085012 2 0 0.0 0.0 0.00 0.00 0.00 61 1019.9
20260508084532 2 0 0.0 0.0 0.00 0.00 0.00 60 1019.9
20260508084011 2 0 0.0 0.0 0.00 0.00 0.00 61 1019.9
20260508083513 2 0 0.0 0.0 0.00 0.00 0.00 60 1020.0
20260508083032 2 0 0.0 0.0 0.00 0.00 0.00 60 1020.1
20260508082513 2 0 0.0 0.0 0.00 0.00 0.00 60 1020.1
20260508082014 2 0 0.0 0.0 0.00 0.00 0.00 60 1020.1
20260508081542 2 0 0.0 0.0 0.00 0.00 0.00 60 1020.1
20260508081013 2 0 0.0 0.0 0.00 0.00 0.00 60 1020.1
20260508080516 2 0 0.0 0.0 0.00 0.00 0.00 60 1020.0
20260508080031 2 0 0.0 0.0 0.00 0.00 0.00 59 1020.1
20260508075514 2 0 0.0 0.0 0.00 0.00 0.00 59 1020.2
20260508075012 2 0 0.0 0.0 0.00 0.00 0.00 59 1020.1
20260508074530 2 0 0.0 3.2 0.00 0.00 0.00 59 1020.2
20260508074011 3 0 0.0 3.2 0.00 0.00 0.00 59 1020.2
20260508073511 3 0 0.0 3.2 0.00 0.00 0.00 59 1020.3
20260508073030 3 0 0.0 3.2 0.00 0.00 0.00 59 1020.2
20260508072510 3 0 0.0 3.2 0.00 0.00 0.00 59 1020.3
20260508072013 3 0 0.0 0.0 0.00 0.00 0.00 59 1020.4
20260508071530 3 0 0.0 0.0 0.00 0.00 0.00 59 1020.3
20260508071014 3 0 0.0 3.2 0.00 0.00 0.00 57 1020.4
20260508070513 3 0 0.0 3.2 0.00 0.00 0.00 58 1020.4
20260508070032 3 0 0.0 0.0 0.00 0.00 0.00 57 1020.4
20260508065518 3 0 0.0 3.2 0.00 0.00 0.00 58 1020.5
20260508065013 3 0 0.0 3.2 0.00 0.00 0.00 58 1020.5
20260508064532 3 0 0.0 3.2 0.00 0.00 0.00 57 1020.5
20260508064014 3 0 0.0 3.2 0.00 0.00 0.00 55 1020.5
20260508063516 3 0 0.0 3.2 0.00 0.00 0.00 56 1020.6
20260508063032 3 69 0.0 3.2 0.00 0.00 0.00 56 1020.6
20260508062513 3 0 0.0 3.2 0.00 0.00 0.00 55 1020.6
20260508062014 3 69 0.0 3.2 0.00 0.00 0.00 56 1020.6
20260508061531 3 0 0.0 0.0 0.00 0.00 0.00 55 1020.6
20260508061011 3 0 0.0 0.0 0.00 0.00 0.00 55 1020.5
20260508060516 3 0 0.0 3.2 0.00 0.00 0.00 56 1020.5
20260508060029 3 0 0.0 3.2 0.00 0.00 0.00 57 1020.5
20260508055513 3 0 0.0 3.2 0.00 0.00 0.00 57 1020.4
20260508055012 4 69 0.0 3.2 0.00 0.00 0.00 56 1020.4
20260508054532 4 0 0.0 3.2 0.00 0.00 0.00 53 1020.3
20260508054012 4 0 0.0 3.2 0.00 0.00 0.00 54 1020.5
20260508053515 4 0 0.0 3.2 0.00 0.00 0.00 51 1020.5
20260508053032 4 69 0.0 1.6 0.00 0.00 0.00 51 1020.5
20260508052514 4 0 0.0 0.0 0.00 0.00 0.00 52 1020.4
20260508052011 5 0 0.0 0.0 0.00 0.00 0.00 50 1020.4
20260508051535 5 0 0.0 0.0 0.00 0.00 0.00 50 1020.5
20260508051014 5 0 0.0 0.0 0.00 0.00 0.00 50 1020.4
20260508050511 5 0 0.0 0.0 0.00 0.00 0.00 50 1020.4
20260508050033 5 0 0.0 0.0 0.00 0.00 0.00 49 1020.4
20260508045517 5 0 0.0 0.0 0.00 0.00 0.00 49 1020.5
20260508045011 5 0 0.0 3.2 0.00 0.00 0.00 49 1020.4
20260508044531 5 0 0.0 3.2 0.00 0.00 0.00 47 1020.4
20260508044012 5 69 0.0 3.2 0.00 0.00 0.00 46 1020.5
20260508043511 6 69 0.0 3.2 0.00 0.00 0.00 46 1020.5
20260508043031 6 0 0.0 3.2 0.00 0.00 0.00 45 1020.5
20260508042513 6 69 0.0 3.2 0.00 0.00 0.00 45 1020.5
20260508042010 6 69 0.0 3.2 0.00 0.00 0.00 44 1020.5
20260508041534 6 0 0.0 3.2 0.00 0.00 0.00 43 1020.5
20260508041011 7 69 0.0 3.2 0.00 0.00 0.00 42 1020.6
20260508040512 7 69 0.0 3.2 0.00 0.00 0.00 40 1020.5
20260508040032 7 69 0.0 3.2 0.00 0.00 0.00 40 1020.5
20260508035514 7 0 0.0 3.2 0.00 0.00 0.00 40 1020.4
20260508035014 8 69 0.0 3.2 0.00 0.00 0.00 40 1020.4
20260508034534 8 0 0.0 3.2 0.00 0.00 0.00 40 1020.4
20260508034011 8 0 0.0 3.2 0.00 0.00 0.00 37 1020.4
20260508033511 8 0 0.0 0.0 0.00 0.00 0.00 37 1020.3
20260508033032 9 0 0.0 0.0 0.00 0.00 0.00 36 1020.2
20260508032512 10 0 0.0 0.0 0.00 0.00 0.00 36 1020.2
20260508032012 10 0 0.0 0.0 0.00 0.00 0.00 34 1020.1
20260508031531 10 0 0.0 0.0 0.00 0.00 0.00 33 1020.0
20260508031011 11 0 0.0 0.0 0.00 0.00 0.00 33 1020.1
20260508030513 11 0 0.0 3.2 0.00 0.00 0.00 32 1020.0
20260508030032 11 0 0.0 3.2 0.00 0.00 0.00 31 1019.9
20260508025511 12 0 0.0 3.2 0.00 0.00 0.00 31 1019.9
20260508025011 12 69 0.0 3.2 0.00 0.00 0.00 30 1019.8
20260508024533 12 0 0.0 3.2 0.00 0.00 0.00 30 1019.7
20260508024010 13 0 0.0 3.2 0.00 0.00 0.00 29 1019.7
20260508023512 13 0 0.0 3.2 0.00 0.00 0.00 28 1019.7
20260508023030 13 0 0.0 3.2 0.00 0.00 0.00 27 1019.7
20260508022513 14 0 0.0 3.2 0.00 0.00 0.00 26 1019.5
20260508022014 14 69 0.0 3.2 0.00 0.00 0.00 26 1019.5
20260508021530 15 69 0.0 3.2 0.00 0.00 0.00 26 1019.5
20260508021012 15 0 0.0 3.2 0.00 0.00 0.00 25 1019.3
20260508020511 15 69 0.0 3.2 0.00 0.00 0.00 25 1019.4
20260508020037 16 69 0.0 3.2 0.00 0.00 0.00 25 1019.3
20260508015511 16 69 0.0 3.2 0.00 0.00 0.00 24 1019.3
20260508015011 16 0 0.0 3.2 0.00 0.00 0.00 23 1019.3
20260508014530 16 69 0.0 3.2 0.00 0.00 0.00 24 1019.3
20260508014011 16 0 0.0 3.2 0.00 0.00 0.00 23 1019.2
20260508013514 16 69 1.6 6.4 0.00 0.00 0.00 23 1019.2
20260508013030 16 69 0.0 6.4 0.00 0.00 0.00 23 1019.2
20260508012511 16 69 1.6 6.4 0.00 0.00 0.00 22 1019.1
20260508012011 17 64 1.6 6.4 0.00 0.00 0.00 23 1019.2
20260508011530 17 54 1.6 6.4 0.00 0.00 0.00 22 1019.1
20260508011013 17 54 1.6 6.4 0.00 0.00 0.00 23 1019.1
20260508010512 17 51 1.6 6.4 0.00 0.00 0.00 22 1019.0
20260508010033 17 50 3.2 6.4 0.00 0.00 0.00 21 1018.9
20260508005511 18 52 1.6 6.4 0.00 0.00 0.00 21 1018.9
20260508005013 18 52 3.2 6.4 0.00 0.00 0.00 21 1018.9
20260508004530 18 53 1.6 6.4 0.00 0.00 0.00 21 1019.0
20260508004015 18 335 1.6 8.0 0.00 0.00 0.00 22 1019.1
20260508003513 18 55 3.2 8.0 0.00 0.00 0.00 21 1019.1
20260508003030 18 58 4.8 11.3 0.00 0.00 0.00 20 1019.0
20260508002513 18 31 4.8 11.3 0.00 0.00 0.00 20 1018.9
20260508002011 18 9 4.8 11.3 0.00 0.00 0.00 20 1019.1
20260508001529 18 286 3.2 12.9 0.00 0.00 0.00 20 1019.1
20260508001010 19 65 3.2 12.9 0.00 0.00 0.00 20 1018.9
20260508000512 18 70 3.2 9.7 0.00 0.00 0.00 21 1019.0
20260508000029 19 65 6.4 9.7 0.00 0.00 0.00 20 1019.0
20260507235520 19 281 3.2 19.3 0.00 0.00 0.00 20 1019.0
20260507235013 18 53 4.8 19.3 0.00 0.00 0.00 21 1019.1
20260507234539 19 68 3.2 12.9 0.00 0.00 0.00 21 1018.9
20260507234013 19 342 4.8 12.9 0.00 0.00 0.00 20 1019.1
20260507233513 19 64 3.2 8.0 0.00 0.00 0.00 19 1018.9
20260507233032 19 54 3.2 9.7 0.00 0.00 0.00 21 1018.9
20260507232511 19 54 4.8 14.5 0.00 0.00 0.00 21 1018.9
20260507232012 19 281 4.8 14.5 0.00 0.00 0.00 23 1018.9
20260507231531 19 22 4.8 9.7 0.00 0.00 0.00 20 1018.9
20260507231013 19 244 1.6 9.7 0.00 0.00 0.00 21 1018.9
20260507230510 19 209 3.2 8.0 0.00 0.00 0.00 21 1018.8
20260507230029 19 11 3.2 12.9 0.00 0.00 0.00 19 1018.7
20260507225510 19 33 4.8 12.9 0.00 0.00 0.00 20 1019.0
20260507225010 19 51 4.8 14.5 0.00 0.00 0.00 22 1019.0
20260507224533 20 11 4.8 14.5 0.00 0.00 0.00 19 1018.9
20260507224013 20 53 3.2 14.5 0.00 0.00 0.00 20 1018.8
20260507223513 20 281 3.2 14.5 0.00 0.00 0.00 22 1019.1
20260507223032 20 61 6.4 12.9 0.00 0.00 0.00 19 1018.9
20260507222510 20 9 1.6 8.0 0.00 0.00 0.00 19 1018.8
20260507222010 20 289 3.2 8.0 0.00 0.00 0.00 19 1018.8
20260507221530 20 269 3.2 8.0 0.00 0.00 0.00 18 1018.8
20260507221013 19 273 1.6 9.7 0.00 0.00 0.00 20 1018.9
20260507220514 19 273 4.8 9.7 0.00 0.00 0.00 19 1019.0
20260507220030 18 279 3.2 12.9 0.00 0.00 0.00 21 1018.9
20260507215513 18 205 4.8 12.9 0.00 0.00 0.00 20 1019.0
20260507215012 18 281 4.8 12.9 0.00 0.00 0.00 21 1019.2
20260507214531 18 266 3.2 14.5 0.00 0.00 0.00 20 1019.2
20260507214013 18 267 3.2 14.5 0.00 0.00 0.00 20 1019.3
20260507213511 18 191 3.2 14.5 0.00 0.00 0.00 20 1019.4
20260507213038 18 281 4.8 14.5 0.00 0.00 0.00 21 1019.5
20260507212513 18 238 4.8 16.1 0.00 0.00 0.00 20 1019.5
20260507212012 18 281 4.8 16.1 0.00 0.00 0.00 20 1019.4
20260507211534 18 279 3.2 11.3 0.00 0.00 0.00 22 1019.6
20260507211010 18 274 3.2 16.1 0.00 0.00 0.00 21 1019.7
20260507210518 18 271 4.8 16.1 0.00 0.00 0.00 21 1019.8
20260507210031 18 238 6.4 14.5 0.00 0.00 0.00 23 1019.8
20260507205513 18 280 6.4 14.5 0.00 0.00 0.00 22 1019.9
20260507205011 18 250 4.8 14.5 0.00 0.00 0.00 20 1019.9
20260507204532 18 269 6.4 14.5 0.00 0.00 0.00 22 1019.9
20260507204012 18 280 3.2 11.3 0.00 0.00 0.00 21 1020.0
20260507203516 18 280 4.8 12.9 0.00 0.00 0.00 22 1020.1
20260507203032 17 290 4.8 12.9 0.00 0.00 0.00 22 1020.1
20260507202510 17 244 4.8 12.9 0.00 0.00 0.00 21 1020.2
20260507202013 17 268 4.8 11.3 0.00 0.00 0.00 21 1020.2
20260507201529 17 265 3.2 12.9 0.00 0.00 0.00 21 1020.2
20260507201015 17 273 4.8 16.1 0.00 0.00 0.00 21 1020.3
20260507200513 17 267 3.2 17.7 0.00 0.00 0.00 22 1020.4
20260507200032 17 315 4.8 17.7 0.00 0.00 0.00 23 1020.4
20260507195513 16 306 6.4 17.7 0.00 0.08 0.00 23 1020.4
20260507195013 17 237 3.2 9.7 0.00 0.08 0.00 23 1020.5
20260507194534 17 266 3.2 9.7 0.00 0.08 0.00 24 1020.5
20260507194012 16 317 3.2 9.7 0.00 0.08 0.00 23 1020.5
20260507193513 16 209 3.2 8.0 0.00 0.08 0.00 25 1020.7
20260507193031 16 236 3.2 11.3 0.00 0.08 0.00 24 1020.9
20260507192510 16 283 4.8 11.3 0.00 0.08 0.00 25 1020.9
20260507192013 16 267 3.2 9.7 0.00 0.08 0.00 25 1021.1
20260507191530 15 271 1.6 9.7 0.00 0.08 0.00 24 1021.2
20260507191010 15 252 1.6 14.5 0.00 0.08 0.00 23 1021.3
20260507190512 15 283 3.2 14.5 0.00 0.08 0.00 22 1021.3
20260507190034 15 277 3.2 11.3 0.00 0.08 0.00 23 1021.3
20260507185513 15 283 3.2 11.3 0.00 0.10 0.00 22 1021.5
20260507185011 15 278 3.2 11.3 0.00 0.10 0.00 24 1021.3
20260507184529 15 281 3.2 9.7 0.00 0.10 0.00 23 1021.5
20260507184015 14 277 3.2 9.7 0.00 0.10 0.00 22 1021.6
20260507183513 14 227 4.8 9.7 0.00 0.10 0.00 22 1021.6
20260507183034 14 280 3.2 11.3 0.00 0.10 0.00 24 1021.7
20260507182512 13 268 3.2 11.3 0.00 0.10 0.00 22 1021.7
20260507182016 13 241 3.2 6.4 0.00 0.10 0.00 22 1021.7
20260507181532 13 284 3.2 14.5 0.00 0.10 0.00 24 1021.8
20260507181011 13 281 4.8 14.5 0.00 0.10 0.00 22 1021.8
20260507180511 13 258 3.2 12.9 0.00 0.10 0.00 25 1022.0
20260507180031 13 278 4.8 12.9 0.00 0.10 0.00 25 1022.0
20260507175511 13 269 3.2 6.4 0.00 0.10 0.00 24 1022.2
20260507175013 12 268 1.6 8.0 0.00 0.10 0.00 25 1022.1
20260507174532 12 266 3.2 11.3 0.00 0.10 0.00 25 1022.2
20260507174014 12 280 3.2 11.3 0.00 0.10 0.00 25 1022.3
20260507173512 12 281 3.2 9.7 0.00 0.10 0.00 24 1022.2
20260507173041 12 270 1.6 4.8 0.00 0.10 0.00 28 1022.2
20260507172515 12 270 1.6 6.4 0.00 0.10 0.00 26 1022.3
20260507172017 11 270 1.6 6.4 0.00 0.10 0.00 23 1022.4
20260507171531 11 270 1.6 4.8 0.00 0.10 0.00 23 1022.5
20260507171012 11 270 1.6 4.8 0.00 0.10 0.00 27 1022.6
20260507170514 11 259 1.6 12.9 0.00 0.10 0.00 25 1022.6
20260507170029 11 294 1.6 12.9 0.00 0.10 0.00 24 1022.6
20260507165513 11 288 3.2 12.9 0.00 0.18 0.00 23 1022.7
20260507165011 11 276 3.2 8.0 0.00 0.18 0.00 28 1022.7
20260507164532 11 300 3.2 12.9 0.00 0.18 0.00 26 1022.7
20260507164013 10 266 3.2 12.9 0.00 0.18 0.00 24 1022.7
20260507163513 10 265 1.6 6.4 0.00 0.18 0.00 23 1022.8
20260507163030 10 271 1.6 6.4 0.00 0.18 0.00 25 1023.0
20260507162511 10 284 1.6 4.8 0.00 0.18 0.00 24 1022.9
20260507162014 10 284 1.6 4.8 0.00 0.18 0.00 25 1022.9
20260507161529 9 286 3.2 4.8 0.00 0.18 0.00 25 1023.0
20260507161013 9 0 0.0 3.2 0.00 0.18 0.00 22 1023.0
20260507160513 9 53 1.6 3.2 0.00 0.18 0.00 22 1023.1
20260507160030 9 53 0.0 3.2 0.00 0.18 0.00 24 1023.1
20260507155511 8 53 1.6 3.2 0.00 0.18 0.00 25 1023.2
20260507155013 8 53 0.0 3.2 0.00 0.18 0.00 26 1023.1
20260507154534 8 0 0.0 3.2 0.00 0.18 0.00 25 1023.2
20260507154013 8 53 0.0 3.2 0.00 0.18 0.00 28 1023.2
20260507153513 8 53 0.0 3.2 0.00 0.18 0.00 27 1023.4
20260507153030 8 53 0.0 3.2 0.00 0.18 0.00 28 1023.3